TimeCST,TemperatureF,Dew PointF,Humidity,Sea Level PressureIn,VisibilityMPH,Wind Direction,Wind SpeedMPH,Gust SpeedMPH,PrecipitationIn,Events,Conditions,WindDirDegrees,DateUTC
12:14 AM,57.2,53.6,88,29.94,10.0,North,15.0,-,N/A,,Mostly Cloudy,360,2012-11-06 06:14:00
12:53 AM,55.4,51.8,88,29.94,10.0,North,11.5,-,N/A,,Scattered Clouds,10,2012-11-06 06:53:00
12:55 AM,54.9,52.0,90,29.94,10.0,North,10.4,-,N/A,,Scattered Clouds,10,2012-11-06 06:55:00
1:55 AM,52.7,50.4,92,29.95,10.0,North,8.1,-,N/A,,Clear,10,2012-11-06 07:55:00
2:38 AM,51.8,50.0,94,29.95,10.0,North,8.1,-,N/A,,Partly Cloudy,360,2012-11-06 08:38:00
2:52 AM,51.8,50.0,94,29.96,10.0,North,10.4,-,N/A,,Mostly Cloudy,360,2012-11-06 08:52:00
2:55 AM,52.0,50.4,94,29.96,10.0,North,10.4,-,N/A,,Mostly Cloudy,360,2012-11-06 08:55:00
2:57 AM,51.8,50.0,94,29.96,10.0,North,9.2,-,N/A,,Mostly Cloudy,360,2012-11-06 08:57:00
2:59 AM,51.8,50.0,94,29.96,10.0,North,8.1,-,N/A,,Mostly Cloudy,360,2012-11-06 08:59:00
3:09 AM,51.8,50.0,94,29.96,10.0,North,9.2,-,N/A,,Overcast,10,2012-11-06 09:09:00
3:22 AM,51.8,50.0,94,29.97,10.0,North,12.7,-,N/A,,Overcast,360,2012-11-06 09:22:00
3:55 AM,51.8,50.5,95,29.98,10.0,North,13.8,-,N/A,,Overcast,350,2012-11-06 09:55:00
4:09 AM,51.8,50.0,94,29.98,10.0,North,15.0,-,N/A,,Overcast,360,2012-11-06 10:09:00
4:55 AM,52.0,50.4,94,29.98,10.0,North,11.5,19.6,N/A,,Overcast,360,2012-11-06 10:55:00
5:05 AM,51.8,50.0,94,29.99,10.0,North,15.0,19.6,N/A,,Overcast,350,2012-11-06 11:05:00
5:17 AM,51.8,50.0,94,29.99,10.0,North,10.4,19.6,N/A,,Overcast,350,2012-11-06 11:17:00
5:43 AM,51.8,50.0,94,29.99,10.0,North,11.5,-,N/A,,Overcast,10,2012-11-06 11:43:00
5:55 AM,52.3,49.8,91,29.99,10.0,North,9.2,-,N/A,,Overcast,10,2012-11-06 11:55:00
6:09 AM,51.8,48.2,88,30.00,10.0,North,11.5,17.3,N/A,,Overcast,10,2012-11-06 12:09:00
6:15 AM,51.8,48.2,88,30.00,10.0,North,15.0,20.7,N/A,,Overcast,10,2012-11-06 12:15:00
6:16 AM,51.8,48.2,88,30.00,10.0,North,13.8,20.7,N/A,,Overcast,360,2012-11-06 12:16:00
6:55 AM,52.3,48.9,88,30.01,10.0,North,11.5,-,N/A,,Overcast,10,2012-11-06 12:55:00
7:35 AM,51.8,48.2,88,30.03,10.0,North,13.8,-,N/A,,Overcast,360,2012-11-06 13:35:00
7:52 AM,51.8,48.2,88,30.03,10.0,NNE,11.5,-,N/A,,Overcast,20,2012-11-06 13:52:00
7:55 AM,52.7,48.7,86,30.03,10.0,NNE,11.5,-,N/A,,Overcast,20,2012-11-06 13:55:00
8:45 AM,53.6,48.2,82,30.04,10.0,North,12.7,-,N/A,,Scattered Clouds,10,2012-11-06 14:45:00
8:55 AM,55.4,48.2,77,30.04,10.0,NNE,11.5,-,N/A,,Partly Cloudy,20,2012-11-06 14:55:00
9:55 AM,58.5,49.5,72,30.04,10.0,North,11.5,-,N/A,,Clear,10,2012-11-06 15:55:00
10:55 AM,61.5,50.0,66,30.03,10.0,NNW,10.4,-,N/A,,Clear,340,2012-11-06 16:55:00
11:55 AM,62.6,50.0,63,30.00,10.0,North,10.4,-,N/A,,Clear,360,2012-11-06 17:55:00
12:55 PM,63.1,49.6,61,29.99,10.0,NW,11.5,20.7,N/A,,Clear,320,2012-11-06 18:55:00
1:55 PM,61.9,49.1,63,29.99,10.0,North,13.8,23.0,N/A,,Scattered Clouds,350,2012-11-06 19:55:00
2:55 PM,60.4,48.6,65,30.00,10.0,NNW,11.5,18.4,N/A,,Clear,330,2012-11-06 20:55:00
3:20 PM,59.0,48.2,67,29.99,10.0,North,13.8,-,N/A,,Mostly Cloudy,360,2012-11-06 21:20:00
3:29 PM,59.0,48.2,67,29.99,10.0,North,11.5,-,N/A,,Scattered Clouds,360,2012-11-06 21:29:00
3:34 PM,59.0,48.2,67,29.99,10.0,North,10.4,-,N/A,,Mostly Cloudy,350,2012-11-06 21:34:00
3:52 PM,59.0,48.2,67,29.99,10.0,North,11.5,-,N/A,,Scattered Clouds,360,2012-11-06 21:52:00
3:55 PM,59.0,47.8,66,29.99,10.0,North,11.5,-,N/A,,Scattered Clouds,360,2012-11-06 21:55:00
4:55 PM,57.2,48.0,71,30.01,10.0,North,9.2,-,N/A,,Clear,360,2012-11-06 22:55:00
5:55 PM,57.0,48.2,72,30.02,10.0,NNW,5.8,-,N/A,,Overcast,340,2012-11-06 23:55:00
6:55 PM,55.2,47.8,76,30.06,10.0,North,5.8,-,N/A,,Partly Cloudy,350,2012-11-07 00:55:00
7:55 PM,54.3,47.7,78,30.06,10.0,NW,3.5,-,N/A,,Clear,320,2012-11-07 01:55:00
8:55 PM,53.4,48.0,82,30.07,10.0,NNW,4.6,-,N/A,,Clear,330,2012-11-07 02:55:00
9:55 PM,52.7,48.0,84,30.06,10.0,NW,3.5,-,N/A,,Clear,310,2012-11-07 03:55:00
10:55 PM,50.5,47.3,89,30.06,10.0,Calm,Calm,-,N/A,,Clear,0,2012-11-07 04:55:00
11:55 PM,50.5,47.5,89,30.06,10.0,NW,5.8,-,N/A,,Clear,310,2012-11-07 05:55:00